ROMMA est une association bénévole à but non lucratif. Votre soutien est indispensable : ADHERER à ROMMA ou FAIRE un DON

Chambon - (38, Isère)

Oisans (2460 m)   Longitude: 06° 10' 42" E   Latitude: 45° 01' 32" N Station partenaire n°803
 

Détail journalier du     <<     >>

Température Humidité Vent Dir Rafale Dir. rafale Neige 1 Neige 2
Heure (°C) (%) (km/h) (km/h) (cm) (cm)
01:00 1.2963NE16NE05
02:00 0.7972NNE8NNE05
03:00 0.8943SSE8SSE05
04:00 0.7974ENE9ENE05
05:00 0.5994NNE12NNE05
06:00 0.5997NNE21NE05
07:00 0.7959NNE27NE05
08:00 1.88312NNE25NE05
09:00 2.07712NNE25NNE05
10:00 2.37010NNE21NE35
11:00 4.16016N29NNE05
12:00 5.55710N28NNE03
13:00 5.6616N15NNE02
14:00 6.5604N15N02
15:00 6.55911N31NE02
16:00 6.96112NE32NE02
17:00 7.4628NE31NE02
18:00 6.5657N24NNE02
19:00 5.8684N12N03
20:00 5.5695N20N02
21:00 5.3664N17N03
22:00 5.2695NO17NNO03
23:00 5.0694ONO17NNO03
minuit 5.3653ENE8SO03

Graphique du 25-10-2019

 

Serveur OMMA